Regional Weather Roundup
Issued by NWS New Orleans/Baton Rouge, LA

Home | Current Version | Previous Version | Text Only | Print | Product List | Glossary On
Versions: 1 2 3 4 5 6 7 8 9 10 11 12 13 14 15 16 17 18 19 20 21 22 23 24 25 26 27 28 29 30 31 32 33 34 35 36 37 38 39 40 41 42 43 44 45 46 47 48 49 50
000
ASUS44 KLIX 141013
RWRLIX
NEW ORLEANS REGIONAL WEATHER ROUNDUP
NATIONAL WEATHER SERVICE NEW ORLEANS LA
400 AM CST THU DEC 14 2017

NOTE: "FAIR" INDICATES FEW OR NO CLOUDS BELOW 12,000 FEET WITH NO
      SIGNIFICANT WEATHER AND/OR OBSTRUCTIONS TO VISIBILITY.
      SKY/WX - SKY CONDITION AND SIGNIFICANT WEATHER.
      TMP - AIR TEMPERATURE.     DP    - DEWPOINT TEMPERATURE.
      RH  - RELATIVE HUMIDITY.   PRES  - PRESSURE.
      HI  - HEAT INDEX.          WCI   - WIND CHILL INDEX.

*  THESE STATIONS ARE NOT NWS OR FAA STATIONS AND ARE NOT UNDER
   NWS QUALITY CONTROL.

LAZ038-040-048-061>063-065>067-069-141100-
SOUTHEAST LOUISIANA

CITY           SKY/WX    TMP DP  RH WIND       PRES   REMARKS
N.O. INTL ARPT MOCLDY    43  42  97 CALM      29.98S
N.O. LAKEFRONT CLEAR     52  47  83 SW5       29.98F
N.O. DOWNTOWN*   N/A     52  45  77 CALM      29.99S
RESERVE*         N/A     43  40  89 CALM      29.97F
SLIDELL        CLEAR     38  35  89 CALM      29.97F
BATON ROUGE    CLOUDY    40  39  97 CALM      29.96F
BOOTHVILLE     CLEAR     52  49  89 CALM      29.99S
BELLE CHASSE   PTCLDY    39  39 100 CALM      29.98S
BOGALUSA*        N/A     35  32  90 MISG      29.98S
GALLIANO*      SUNNY     38  35  90 CALM      29.98S
NEW ROADS*       N/A     36  35  96 CALM      29.97S
GONZALES*        N/A     41  40  97 CALM      29.97F
HAMMOND*       PTCLDY    37  36  93 CALM      29.97F
HOUMA*         PTCLDY    40  40  99 CALM      29.97F
PORT FOURCHON* SUNNY     54  50  87 CALM      29.98S

$$

MSZ070-080>082-141100-
SOUTHERN MISSISSIPPI

CITY           SKY/WX    TMP DP  RH WIND       PRES   REMARKS
MCCOMB         CLOUDY    36  33  89 CALM      29.96R
GULFPORT       CLEAR     41  39  93 CALM      29.98S
BILOXI         CLEAR     45  41  84 CALM      29.98R
PASCAGOULA     CLEAR     37  35  92 CALM      29.98F FOG

$$

COASTAL OBSERVATIONS
LAKE AND NEARSHORE STATIONS

STATION/POSITION TIME  TEMP    WIND        PRES    WAVE
                       AIR SEA DIR/SP/G            HT/PER
                 (UTC) (F)     (DEG/KT/KT) (MB)    (FT/S)
PASCAGOULA       0948   49     280/  4/  5 1014.5
WAVELAND YACHT   0948   47 51   CALM  /  2 1015.1
GRAND ISLE       0948   56 62  310/  2/  3 1015.3
SOUTHWEST PASS   0948   63 59  300/  6/ 12 1015.3
NEW CANAL        0948   50 54  230/  2/  2 1015.0
SHELL BEACH      0948   51 55  220/  4/  5 1015.1

OFFSHORE STATIONS

STATION/POSITION TIME  TEMP    WIND        PRES    WAVE
                       AIR SEA DIR/SP/G            HT/PER
                 (UTC) (F)     (DEG/KT/KT) (MB)    (FT/S)
64 S DAUPHIN ISL 0950   65 73  270/ 14/ 17 1015.2    2/ 4

$$




USA.gov is the U.S. government's official web portal to all federal, state and local government web resources and services.